Zurück zum Katalog

STARLINK-3991

AktivKommunikationVLEO
NORAD 52641·PAYLOAD·🇺🇸 United States

Gestartet May 14, 2022 von Cape Canaveral Space Force Station

Loading…

Nächste Überflüge (nächste 24 Stunden)

TLE

AktuellSource: CelesTrak SupGP

Epoche: Sep 14, 2026, 21:36 UTC

1 52641C 22052AV  26257.90048611 -.00028086  00000+0 -90327-3 0  2576
2 52641  53.1570 116.9779 0001302  87.0771 328.6941 15.31712278    18

Verfolge STARLINK-3991 in Echtzeit mit AllMySat

Download on the App Store